Wind_Speed
4 5 7 5 3 3 4 3 4 5 5 5 2 2 2 1 2 4 4 4 2 4 1 0 3 2 4 6 8 10 11 11 11 10 9 9 9 9 10 10 10 10 9 11 14 14 13 13 12 11 11 12 12 12 13 14 13 13 13 13 12 12 12 12 11 10 9 9 9 9 9 9 9 8 9 9 8 9 9 9 10 9 8 8 7 6
4 7 5 3 1 2 1 2 3 4 4 5 5 2 2 2 2 5 4 4 1 3 1 1 5 4 5 6 7 9 11 12 12 12 11 11 11 9 10 11 10 9 9 11 13 14 14 13 13 12 11 12 13 13 14 14 14 14 13 14 13 13 12 12 12 11 10 9 9 9 9 9 9 8 8 8 8 8 9 10 9 9 8 8 7 6
6 8 4 4 2 1 2 2 5 6 6 6 5 4 3 1 3 4 3 4 2 2 3 3 5 4 5 7 9 10 10 10 11 12 11 12 11 10 10 10 10 10 10 11 13 14 15 13 13 12 11 12 13 14 14 14 15 15 14 14 14 14 13 12 12 11 10 10 9 8 8 8 8 9 8 7 7 7 8 10 9 8 8 8 7 6
4 3 3 5 5 5 5 4 6 6 7 7 6 6 3 1 2 1 2 3 2 3 4 5 6 4 5 8 9 10 9 8 10 11 10 10 11 11 11 10 10 11 11 11 13 14 15 14 14 13 11 12 12 13 14 15 15 15 15 15 14 15 14 13 13 12 11 10 9 7 7 7 7 8 7 7 7 7 8 10 10 8 8 8 7 6
2 4 2 4 7 9 8 7 7 7 7 8 8 8 4 1 4 3 2 3 4 4 4 6 6 3 5 8 8 9 10 9 10 11 11 11 11 11 11 11 11 11 11 12 13 13 14 15 14 13 12 12 12 13 14 15 15 15 15 15 15 15 15 14 14 13 11 11 10 8 8 7 7 8 8 8 9 9 9 10 10 9 9 8 7 6
1 5 3 5 7 9 9 7 9 8 7 7 9 9 7 4 4 2 1 4 5 4 2 5 5 2 5 6 7 9 10 10 11 12 12 12 12 11 11 11 12 11 11 12 13 13 14 15 14 14 13 13 13 13 13 14 15 15 16 16 15 15 15 15 15 15 13 12 12 11 10 10 9 9 10 10 10 10 10 10 10 10 9 8 7 6
4 5 4 6 6 8 8 8 8 7 8 6 3 4 5 4 4 3 4 6 5 1 1 3 5 2 3 4 5 8 10 10 11 12 13 12 12 12 11 11 12 12 12 12 13 13 13 15 15 15 14 14 13 13 13 13 14 15 16 17 16 15 15 15 16 16 14 13 13 12 12 12 11 10 10 10 9 9 9 9 9 9 9 9 7 6
4 5 6 6 6 7 7 6 6 8 9 3 4 2 5 4 4 4 5 6 4 5 2 5 4 5 2 4 5 8 10 10 11 12 13 12 13 13 13 13 13 13 12 12 13 13 14 15 16 15 15 15 14 13 14 13 14 15 16 17 17 15 15 15 16 18 16 14 14 13 12 11 11 11 10 10 9 8 8 8 8 8 9 9 8 7
3 4 5 5 6 5 3 1 2 8 9 2 2 4 5 4 4 3 5 5 3 6 5 4 3 5 2 5 4 4 6 7 9 11 12 13 14 14 14 15 14 13 13 12 13 14 14 16 16 16 16 16 15 14 14 14 14 15 16 17 17 16 15 15 17 18 17 16 15 14 13 11 11 10 9 10 9 8 8 8 8 7 7 8 8 8
2 0 1 4 4 1 2 3 1 8 7 2 2 3 3 4 4 3 5 4 3 6 5 1 4 5 0 4 2 1 2 2 4 7 9 12 14 14 14 15 15 14 12 12 13 14 16 17 17 17 16 16 15 14 14 15 14 15 16 17 18 17 16 16 17 18 18 17 15 15 14 12 12 10 9 10 9 9 8 8 8 7 7 7 8 9
4 2 1 3 2 4 2 1 2 8 5 3 4 4 4 5 4 3 4 3 5 6 3 2 4 6 2 2 2 2 1 3 2 1 3 7 12 15 15 15 15 14 13 13 13 14 17 18 18 17 17 16 15 14 14 15 15 15 16 17 18 17 17 17 18 18 18 18 16 15 14 13 13 12 11 10 10 10 9 9 8 8 7 7 7 8
6 6 4 3 2 3 2 3 2 7 6 6 6 4 4 4 3 5 3 4 7 4 1 4 5 7 5 1 3 3 3 5 4 4 4 5 8 11 13 14 15 14 14 13 13 13 15 17 17 17 17 16 15 14 14 15 16 16 16 17 18 17 17 18 19 19 18 18 17 16 15 14 14 13 12 11 11 10 10 10 9 8 8 7 7 7
6 4 4 5 2 3 3 4 4 6 7 7 5 4 6 5 4 6 4 5 8 4 1 5 6 5 4 2 5 5 6 6 5 6 6 6 7 8 11 14 14 14 15 14 13 14 13 13 15 17 16 15 15 16 16 16 16 16 16 17 18 18 18 18 19 20 19 19 18 17 16 16 15 14 13 12 11 11 11 11 10 9 9 8 8 8
5 6 4 4 4 2 5 3 3 5 6 7 5 5 7 5 5 7 6 6 7 5 2 3 4 5 3 3 6 7 7 8 8 8 8 9 9 8 10 12 13 13 14 14 13 14 13 13 16 17 16 16 17 18 17 17 17 17 17 18 18 18 18 18 19 19 20 19 18 17 17 16 16 15 14 13 12 12 12 11 11 11 10 10 10 9
2 4 3 2 1 3 4 4 4 1 5 7 5 5 7 6 6 7 6 7 7 6 3 0 3 4 2 1 4 8 7 9 10 9 8 10 9 6 8 10 11 12 13 13 13 15 15 16 18 17 17 18 18 19 18 17 17 17 18 19 19 19 19 19 19 19 20 19 19 18 17 17 16 16 15 14 13 12 12 12 12 12 11 10 10 9
4 1 6 4 3 4 4 3 4 5 5 5 4 6 5 5 6 4 4 5 5 5 4 3 4 1 1 2 3 7 7 9 11 11 10 9 8 1 7 7 7 9 11 13 14 14 16 18 18 17 18 19 19 19 18 18 18 19 18 20 21 20 19 19 19 19 19 19 19 18 18 18 17 16 16 15 14 13 13 12 12 12 12 11 9 9
4 2 5 1 2 2 4 2 1 5 3 2 4 5 1 4 7 5 3 2 3 5 3 4 4 1 1 3 2 6 8 11 12 13 11 11 9 3 5 6 6 6 6 10 12 13 15 17 18 18 19 19 19 19 19 19 20 20 20 20 21 21 20 19 20 20 19 19 18 19 19 19 18 18 17 16 15 15 14 13 13 13 13 12 11 10
4 1 5 1 2 5 1 2 1 1 4 4 4 2 1 3 6 5 4 4 5 6 4 5 6 4 3 3 3 7 10 12 13 13 12 11 10 7 4 5 6 5 1 4 8 10 12 15 16 18 18 19 19 19 20 21 21 20 20 21 21 22 22 22 21 20 19 19 18 18 19 20 19 18 18 17 16 15 15 14 14 14 13 13 12 11
4 3 5 3 1 2 3 5 3 3 1 6 2 2 2 5 5 4 5 5 6 7 5 6 8 6 2 0 4 9 10 11 12 12 10 9 10 9 7 3 3 6 4 0 3 5 8 11 13 14 16 16 17 18 19 21 21 20 20 20 20 22 24 23 21 20 19 19 18 18 18 19 19 18 18 17 16 15 15 15 15 15 14 13 13 12
3 5 2 5 1 2 4 5 5 2 2 2 2 3 3 4 4 4 5 4 5 7 7 6 8 4 2 2 4 7 9 11 11 10 8 7 8 8 8 7 3 3 4 3 1 3 4 6 9 11 13 13 14 16 17 18 18 19 18 18 19 20 21 22 20 20 20 20 19 18 17 18 18 18 18 17 16 16 16 16 15 15 14 14 13 13
1 3 2 3 2 4 3 0 3 3 2 4 4 4 4 3 3 4 4 4 5 6 6 6 7 3 4 2 3 6 7 9 9 8 7 7 7 7 7 8 6 3 2 3 2 1 2 3 6 9 11 12 13 13 14 15 16 16 16 16 17 18 19 21 21 21 20 20 19 19 18 18 18 18 18 17 17 17 16 16 15 15 14 14 14 14
2 2 4 3 3 3 3 5 3 2 3 4 4 4 4 3 4 5 6 5 4 6 5 6 7 0 5 1 3 5 6 7 7 9 7 7 8 7 7 6 6 6 4 0 1 1 1 3 5 7 8 10 11 12 14 14 14 15 16 16 17 18 19 20 20 20 19 18 18 19 18 18 17 17 18 18 18 18 18 17 16 15 15 14 14 14
3 3 4 4 3 2 5 4 1 2 3 4 3 3 5 4 5 6 7 5 5 6 5 6 7 0 5 4 3 5 7 7 6 7 7 7 7 8 8 7 5 6 5 2 1 1 1 1 4 6 7 8 10 11 13 14 13 14 15 15 16 17 18 18 18 18 17 17 17 18 18 17 17 17 18 18 19 20 19 18 17 16 16 15 15 15
2 3 3 2 1 1 4 4 2 0 3 4 2 2 4 5 5 6 6 5 6 7 5 6 7 1 4 4 4 7 8 6 5 6 7 7 7 7 7 7 6 6 5 3 2 2 2 1 1 4 4 7 9 9 9 10 11 12 13 14 15 16 17 17 17 17 17 16 16 17 17 17 17 17 18 18 19 20 20 19 18 17 17 17 16 15
2 1 2 4 3 4 5 5 5 4 4 5 2 1 4 5 5 5 4 4 6 7 7 9 7 1 3 2 4 8 8 6 5 5 5 6 7 7 6 6 6 6 5 4 3 4 4 4 1 2 4 2 4 6 7 7 8 10 11 13 14 15 15 15 16 16 16 16 16 16 17 17 17 17 18 18 18 19 20 20 19 18 18 17 17 16
2 1 2 5 5 4 3 2 2 2 3 4 3 2 3 5 6 5 4 5 6 5 7 9 5 3 3 2 5 8 7 5 5 5 6 7 7 7 7 6 5 5 6 6 4 3 3 4 4 4 6 6 2 3 4 4 5 7 11 13 14 14 14 15 16 17 17 17 16 16 17 17 17 17 17 18 18 19 19 19 19 19 18 18 18 18
2 2 3 5 6 5 4 4 4 3 4 5 4 4 4 4 4 5 6 6 5 4 6 4 2 5 6 4 6 7 6 4 5 6 7 8 8 8 8 7 6 6 6 7 6 4 3 4 6 7 6 6 5 3 2 3 2 3 6 10 12 13 14 15 17 18 18 17 17 17 18 19 19 18 18 17 17 17 19 19 19 20 19 18 18 18
3 3 4 5 5 5 5 4 3 3 4 5 4 5 5 3 3 4 5 5 5 6 4 1 3 5 7 6 6 6 6 5 7 8 8 8 8 8 8 9 8 8 8 9 9 9 8 7 8 9 7 6 6 5 3 2 3 4 6 8 9 11 14 15 16 18 18 18 19 19 20 19 18 18 17 15 14 15 16 18 18 19 19 18 18 19
5 2 3 4 5 4 4 4 3 3 3 3 4 5 5 6 6 6 5 4 3 4 1 3 2 3 6 6 6 7 6 7 9 9 8 9 9 9 10 10 11 11 11 11 11 12 11 10 10 10 10 9 10 9 4 2 6 7 8 9 8 11 15 16 15 16 17 18 19 19 19 17 16 16 16 16 18 18 18 19 19 18 18 18 18 18
5 1 3 4 5 4 3 3 4 4 4 3 3 3 4 4 4 3 2 2 1 2 4 4 3 4 5 5 7 6 5 6 8 8 10 10 9 10 11 11 11 11 11 11 11 11 11 11 11 11 11 11 11 12 10 6 3 4 6 7 8 10 13 15 16 15 16 18 20 19 18 16 16 17 17 18 21 21 19 19 20 19 17 17 17 17
3 1 3 4 6 5 3 3 4 5 5 5 4 3 3 1 1 1 2 3 3 3 4 5 6 5 4 5 6 6 5 6 7 9 10 9 8 10 12 12 11 11 11 12 11 12 11 12 12 12 12 12 12 11 12 11 8 4 4 5 7 10 11 13 15 13 13 16 18 17 16 16 17 18 17 17 18 17 17 19 20 20 18 15 16 17
4 2 3 4 6 3 3 3 5 5 6 8 7 6 6 4 1 1 2 1 2 1 4 5 4 4 4 4 5 7 7 7 8 8 8 7 7 10 12 13 11 10 12 12 12 13 12 12 13 13 13 13 13 13 11 9 9 8 5 4 6 8 10 12 14 13 11 12 13 14 14 14 16 17 17 17 18 18 20 21 21 21 20 18 17 18
3 3 2 3 4 1 3 2 4 5 7 7 4 4 4 3 2 1 2 1 1 0 2 3 1 5 5 5 5 6 6 5 6 6 6 7 6 10 12 12 11 11 12 12 12 12 12 12 14 15 15 15 14 14 12 9 8 8 7 4 4 4 6 9 11 11 11 10 11 12 13 13 14 16 18 20 20 19 21 22 20 19 19 20 19 18
4 5 2 1 3 1 2 2 5 6 6 2 2 0 1 2 3 3 1 1 2 1 2 3 6 6 6 5 5 7 6 3 3 4 4 7 6 9 11 11 10 11 12 11 11 12 13 14 15 15 16 15 13 13 12 10 9 7 6 5 5 5 4 5 6 7 9 10 10 11 12 13 15 16 18 19 19 18 20 22 22 20 18 19 19 18
5 5 2 1 4 2 0 3 7 5 1 3 3 1 2 2 3 3 1 2 2 2 1 5 6 5 5 6 6 8 8 5 4 6 5 7 7 8 9 10 10 10 10 10 10 11 13 15 16 17 16 14 13 12 12 12 11 10 9 8 9 10 10 9 9 8 7 8 11 12 12 13 14 15 17 19 18 18 19 19 20 19 16 17 18 17
5 5 3 2 3 2 2 5 5 2 1 3 5 4 4 4 4 4 4 5 4 3 2 4 5 5 5 6 7 7 8 6 5 7 6 5 5 6 7 9 10 10 10 10 10 11 13 14 15 16 14 12 13 13 13 13 14 14 14 14 13 13 14 16 17 16 14 12 10 11 12 14 14 14 16 18 17 18 18 17 16 15 14 15 17 16
6 5 3 3 3 3 4 4 3 4 3 4 5 5 4 4 3 3 3 4 6 4 3 4 6 6 5 6 7 7 7 6 5 6 6 4 3 4 6 8 9 10 11 12 12 12 12 13 14 14 14 14 15 15 15 15 17 18 18 19 18 17 16 17 17 17 17 17 15 10 6 7 9 10 12 14 15 17 18 17 15 13 11 12 13 11
6 6 4 4 4 3 5 5 4 5 3 2 3 4 4 2 2 1 3 2 7 7 5 5 6 7 6 6 7 7 5 4 3 4 4 3 2 3 5 6 8 10 11 11 12 13 12 12 13 13 13 15 16 17 17 17 18 19 21 21 21 20 18 18 17 15 15 18 19 17 12 8 5 1 2 5 8 12 15 16 15 12 10 11 10 9
8 6 5 5 4 4 5 5 4 3 1 3 4 4 5 4 4 3 3 2 6 7 6 6 7 8 7 7 7 7 4 3 2 4 5 3 3 4 5 6 7 9 11 11 11 12 12 12 12 12 13 14 15 16 17 18 18 19 21 21 21 21 21 19 17 16 16 18 22 22 19 17 14 10 7 6 4 1 5 9 12 12 8 7 7 6
8 6 6 7 6 4 5 5 4 2 2 5 5 5 6 4 4 5 4 1 5 7 7 7 7 8 8 7 7 6 3 2 3 6 7 6 5 5 6 7 7 8 10 10 10 11 11 11 12 13 14 14 14 14 16 17 18 18 18 17 18 20 20 18 18 20 19 19 22 25 25 23 21 19 16 13 10 7 4 0 6 9 7 6 7 5
7 6 6 7 6 4 4 5 4 1 4 6 5 5 6 5 5 5 2 2 5 7 6 6 6 7 7 7 6 4 1 4 6 8 9 7 6 6 7 8 8 9 10 9 9 9 10 11 12 13 13 13 13 14 14 15 16 16 15 15 16 17 16 14 16 20 21 21 22 25 25 24 23 23 22 18 14 11 9 6 4 6 4 5 6 6
6 6 5 6 6 4 3 5 5 1 3 5 6 5 5 5 4 1 2 3 5 6 5 5 5 6 6 6 4 2 4 7 9 9 8 7 7 7 7 8 8 9 9 9 9 9 10 11 12 12 13 13 13 13 14 14 15 15 14 15 16 14 13 13 14 16 18 20 21 21 22 21 21 20 20 18 15 13 12 10 8 6 3 3 5 7
5 6 6 5 4 3 3 5 5 1 3 7 8 6 4 4 0 2 3 3 4 6 5 4 4 5 6 6 5 5 7 9 9 8 8 7 7 8 8 8 8 8 9 9 9 9 10 11 11 12 12 12 12 12 13 13 14 14 14 15 14 12 12 12 12 13 14 16 17 18 19 19 18 16 15 14 12 10 10 11 10 9 6 4 6 9
5 5 5 4 4 4 5 4 2 2 5 9 7 2 2 2 4 3 4 3 4 4 4 4 4 4 5 6 7 8 9 10 9 8 8 6 7 8 9 9 8 8 8 9 9 10 10 10 11 11 11 12 12 12 12 12 13 13 14 14 12 11 11 11 11 12 13 13 13 15 16 18 18 16 14 12 11 10 10 11 12 12 11 10 11 13
3 2 3 2 3 3 3 2 3 3 6 8 3 3 4 5 5 3 3 3 4 3 2 3 5 5 5 7 8 9 9 10 10 9 8 7 7 8 9 9 8 8 9 9 9 9 9 10 11 11 11 11 11 11 12 12 12 12 12 11 10 10 11 11 12 12 13 13 12 13 13 15 17 17 16 14 13 13 12 12 12 14 15 16 15 14
1 0 2 2 3 2 1 3 3 3 6 7 3 3 4 4 4 3 3 4 4 4 3 3 5 7 7 8 9 9 10 11 10 9 8 7 8 9 9 9 8 8 9 10 9 9 9 10 11 12 12 12 11 11 12 11 11 11 10 9 10 10 10 10 11 12 12 12 13 13 14 14 14 15 16 15 14 15 15 14 13 12 13 15 14 13
3 3 4 3 3 3 3 4 5 5 6 7 5 4 4 4 4 3 3 4 5 5 5 5 7 7 8 8 10 10 11 11 10 9 8 7 8 9 9 8 8 8 9 9 9 8 9 10 11 12 13 12 11 11 11 11 11 10 9 9 9 9 9 9 10 10 11 12 12 12 14 14 14 14 15 15 14 14 16 18 17 13 12 12 12 11
5 5 5 4 4 3 2 5 6 5 5 6 6 6 6 6 5 4 4 6 6 6 7 7 8 8 8 8 10 11 11 10 9 9 8 7 7 9 9 9 9 9 8 8 8 8 9 10 11 11 12 12 11 11 12 11 11 10 10 10 9 9 9 9 9 10 10 10 10 11 11 12 12 13 14 16 16 15 14 14 15 15 14 13 11 10
5 6 5 5 5 3 3 6 7 6 6 7 6 6 7 7 7 7 7 7 8 8 8 8 8 8 8 9 10 11 11 10 9 9 9 8 8 8 9 8 8 8 8 7 7 8 8 9 10 10 11 11 11 11 12 11 11 10 10 10 9 9 8 8 8 9 9 8 9 8 8 9 10 10 11 13 16 17 16 14 13 12 13 14 12 10
5 6 5 5 6 5 4 8 9 5 5 8 9 8 8 8 8 9 8 9 9 9 8 9 8 8 9 10 11 10 9 9 9 10 10 9 9 9 9 8 7 7 7 7 6 7 7 8 9 10 10 9 9 10 11 11 10 10 9 9 9 9 8 7 7 7 8 8 8 8 7 7 8 9 8 8 10 12 14 15 15 13 13 13 14 13
6 6 6 6 6 4 3 11 12 5 3 9 12 11 10 9 9 10 9 9 9 9 8 9 9 8 9 10 10 10 9 9 10 10 10 10 10 10 9 7 7 7 6 6 5 5 6 6 7 8 9 8 9 9 9 9 9 9 9 9 9 9 8 8 7 7 7 7 8 8 7 7 7 7 7 7 7 7 8 10 12 13 13 13 13 13
Wind_Direction
222 218 210 221 227 193 196 245 321 340 326 316 302 250 307 353 79 65 77 88 355 290 234 353 279 226 181 168 171 177 181 196 203 200 200 197 194 190 190 191 185 191 190 177 177 181 181 177 171 169 169 168 168 168 167 170 172 171 171 168 167 167 163 161 163 165 164 163 162 161 159 157 154 152 154 155 156 157 153 150 155 156 156 157 157 160
220 239 218 192 44 51 160 196 251 269 277 280 280 270 242 214 100 65 63 84 63 290 13 354 277 250 202 182 175 179 185 194 198 199 197 197 198 195 196 193 187 191 188 178 177 181 184 180 174 173 174 173 170 169 171 174 175 174 174 172 170 170 169 169 169 169 169 169 169 168 167 162 157 159 163 160 161 160 154 155 158 159 160 163 164 165
208 237 211 161 150 168 199 204 227 244 252 252 260 267 244 176 110 94 79 87 113 280 327 324 292 265 200 186 184 188 193 197 197 199 199 198 199 197 198 194 189 192 188 182 178 181 185 182 179 178 178 178 173 173 176 176 175 175 175 174 174 174 173 173 172 173 175 173 174 174 170 167 162 165 168 162 163 163 159 162 165 165 168 171 171 171
214 223 180 181 190 205 213 215 232 242 243 242 247 253 240 163 218 198 120 124 158 257 299 306 289 269 203 187 190 195 198 197 194 199 201 203 204 202 201 196 193 195 191 187 184 182 184 184 184 183 182 181 178 179 179 177 177 177 177 176 176 177 176 176 174 175 176 174 175 176 174 170 164 167 169 164 166 169 165 168 172 175 175 177 180 178
270 65 90 201 199 218 227 216 229 241 238 235 238 254 263 226 273 316 94 172 200 221 264 288 274 238 193 194 194 190 192 191 188 195 201 204 208 208 205 199 196 199 196 193 190 185 184 185 187 187 185 185 184 185 182 179 178 178 177 177 176 177 178 178 177 176 174 172 174 173 173 172 167 171 177 177 176 176 175 177 179 181 182 184 187 185
146 89 144 198 192 217 231 224 227 237 250 241 227 239 257 281 290 317 288 252 243 204 213 298 291 169 152 188 192 176 182 190 187 192 199 200 203 207 209 205 200 200 200 198 196 191 188 187 188 188 188 190 191 189 187 182 179 178 176 176 177 177 179 180 178 178 176 175 177 176 177 178 178 180 184 186 184 179 181 183 180 182 186 191 195 195
109 121 192 204 194 207 222 235 226 226 254 251 198 212 235 259 270 254 265 270 277 324 117 275 294 281 152 163 170 166 176 190 192 199 204 201 202 206 208 206 202 202 200 199 200 198 193 190 190 191 192 196 196 191 189 185 180 176 174 175 177 177 179 180 179 179 180 181 183 184 185 186 186 187 188 190 189 183 184 185 182 183 189 196 202 202
126 159 195 205 211 210 217 233 203 208 246 255 90 145 215 222 239 252 266 262 297 335 256 208 267 283 229 117 124 165 176 186 197 206 207 205 207 208 210 207 202 204 203 198 199 201 197 193 194 194 195 199 198 192 189 187 181 176 174 174 177 179 179 179 179 180 182 184 186 189 191 191 193 194 189 188 192 190 187 189 188 189 192 198 208 209
139 193 184 201 220 218 223 275 153 208 240 317 29 240 226 217 223 252 271 265 322 318 266 185 206 265 233 94 94 178 184 186 202 212 211 211 213 211 212 211 204 203 206 203 199 200 199 197 197 197 197 200 198 192 190 189 182 176 174 174 175 179 180 180 180 182 186 187 187 191 193 195 197 198 193 191 195 195 194 197 196 197 199 201 208 214
90 270 219 240 247 322 9 34 107 224 236 319 291 231 185 185 198 231 260 274 308 286 277 212 218 257 237 98 92 196 185 156 190 210 209 211 217 216 214 214 210 203 203 207 204 199 199 199 199 198 198 200 197 193 193 190 183 177 176 175 177 179 181 183 182 184 188 189 190 194 196 196 196 194 192 191 193 194 196 200 199 200 205 206 209 212
91 123 231 250 329 2 360 79 214 229 221 179 195 184 168 179 188 219 242 271 273 257 275 317 263 260 248 115 86 100 49 15 12 260 222 214 220 218 213 213 213 207 200 205 207 201 200 201 201 201 200 200 198 195 194 192 187 183 179 178 179 181 183 184 185 187 190 192 194 197 197 197 195 191 190 188 190 192 194 200 201 201 206 209 211 210
138 160 168 149 41 346 205 149 191 215 196 195 204 188 190 188 190 224 221 237 255 249 339 328 300 270 253 122 57 43 20 7 349 319 304 262 242 228 219 215 214 212 203 201 205 204 202 202 202 202 202 199 198 197 196 195 191 188 185 181 181 184 185 185 188 190 193 195 198 199 199 199 196 193 193 192 193 195 198 203 204 203 205 209 213 212
158 136 112 152 153 327 239 175 156 185 195 213 214 201 215 206 202 230 225 224 242 229 260 323 320 280 251 100 54 20 12 14 358 323 306 282 264 243 230 220 211 212 208 200 202 205 204 203 201 203 203 198 197 198 198 198 195 192 190 186 183 185 186 187 189 192 195 198 200 201 201 200 199 199 198 197 199 201 204 208 207 205 205 207 212 214
160 131 116 176 163 357 293 246 165 168 198 218 210 215 231 223 216 230 221 221 237 212 163 354 317 262 238 103 51 25 16 12 1 341 326 302 274 243 230 222 207 208 210 203 201 203 202 202 202 203 202 197 197 200 200 200 198 194 192 190 189 188 188 189 191 193 196 200 202 202 201 200 201 202 203 203 204 206 207 209 210 208 208 209 213 216
248 142 88 5 45 8 329 326 334 279 208 212 207 227 245 250 245 246 236 228 235 223 189 16 260 263 262 130 28 16 22 18 6 0 348 319 293 237 212 216 204 202 209 207 203 204 202 200 201 201 198 197 199 201 202 200 197 195 193 192 192 192 190 191 192 195 198 201 202 203 203 202 203 204 206 208 209 209 209 209 210 210 212 214 214 216
280 79 65 31 14 354 350 6 322 284 225 195 205 229 247 273 266 273 293 277 264 252 233 218 229 318 31 150 33 6 21 28 14 10 7 348 339 234 178 185 200 205 209 208 205 205 205 202 201 199 198 199 201 202 202 199 195 195 194 193 195 196 195 193 194 197 200 202 203 204 205 205 205 206 207 207 209 210 211 210 210 210 213 218 217 217
257 116 85 113 148 53 357 14 287 278 269 165 205 229 264 323 290 279 283 263 260 262 236 217 233 17 102 173 78 16 22 29 20 16 17 12 8 16 147 152 191 208 216 219 211 207 207 205 202 201 203 204 204 203 201 197 195 196 194 194 195 198 199 198 198 200 201 202 204 205 206 207 207 209 209 209 208 209 211 212 212 212 213 218 221 220
306 181 110 165 169 111 38 305 156 296 296 262 227 215 152 287 275 272 262 225 229 249 227 206 228 236 222 200 58 27 23 22 17 17 18 24 22 20 79 135 172 164 147 246 222 209 208 207 204 204 207 209 208 205 200 197 196 197 196 196 196 198 201 203 202 203 202 203 206 207 208 209 210 212 213 213 211 210 212 212 213 216 216 217 219 220
312 269 133 145 261 117 183 239 207 131 322 301 306 135 212 247 232 221 250 250 242 251 241 212 219 234 252 327 31 20 18 17 13 8 8 20 21 12 16 37 150 152 133 263 231 213 209 209 208 209 212 211 209 208 204 199 197 198 199 200 201 201 204 206 205 205 205 205 207 210 211 212 212 214 216 217 215 213 214 213 213 216 217 218 217 216
309 287 158 139 136 292 216 229 244 179 144 278 238 194 233 277 274 244 247 263 266 262 259 241 226 216 59 43 24 15 15 17 10 354 352 7 6 359 359 357 357 172 169 152 196 242 229 215 212 215 218 214 212 212 210 206 203 203 203 202 203 204 205 207 207 206 207 207 209 211 212 213 214 216 218 219 218 216 216 215 215 216 217 218 218 215
273 283 288 132 161 247 230 345 316 298 257 245 231 230 230 238 275 273 250 249 266 266 264 259 248 193 97 70 27 24 20 24 7 339 343 356 347 351 357 349 345 326 209 159 167 276 311 274 229 216 215 214 215 214 213 213 211 208 205 202 203 203 202 205 208 208 207 208 210 212 213 214 215 217 220 220 220 219 219 218 217 219 218 217 218 217
321 275 291 290 245 232 104 63 15 348 309 283 262 263 263 251 256 257 245 232 244 262 263 264 266 146 91 57 28 36 28 31 5 338 350 357 341 346 353 345 346 338 319 208 171 209 287 296 267 241 224 212 211 211 210 213 211 208 206 204 202 200 201 205 207 208 208 208 211 213 216 217 217 218 221 222 222 221 221 221 220 220 221 219 218 216
336 290 276 289 312 16 89 93 3 3 329 292 273 270 271 263 255 256 261 254 242 253 259 265 266 54 65 20 26 44 35 33 11 349 359 359 350 353 351 349 360 353 339 331 218 218 206 257 286 274 243 217 212 214 213 211 209 208 206 203 202 201 203 205 205 206 205 206 210 213 217 220 221 221 222 223 225 224 224 223 220 219 220 222 220 216
268 270 268 273 338 123 148 162 180 247 278 259 235 260 272 276 280 280 286 281 256 245 240 252 254 190 54 11 28 52 45 39 24 6 0 356 0 2 357 1 13 12 3 8 39 55 78 126 278 297 266 228 219 219 217 211 208 212 212 207 207 207 205 205 204 203 202 204 208 213 217 221 224 226 226 226 226 226 226 226 223 220 219 221 222 219
250 255 272 264 226 192 198 196 188 197 242 253 245 310 294 290 280 273 279 274 260 245 234 249 253 153 59 360 39 54 50 44 33 21 8 6 8 6 10 19 21 23 28 29 43 67 80 97 118 343 345 296 219 202 211 219 214 217 222 219 216 214 209 205 203 202 203 204 207 212 217 221 224 227 228 229 230 230 229 228 226 223 220 221 222 221
279 273 263 271 268 248 242 237 219 224 235 240 247 270 281 286 280 277 266 247 245 226 224 250 263 126 124 90 55 49 44 41 37 32 29 28 23 15 18 29 32 32 39 42 41 56 87 91 83 48 19 5 5 161 185 222 236 236 238 234 229 223 214 206 203 202 203 205 207 209 213 219 223 226 227 229 232 233 232 231 230 228 224 222 222 221
274 245 249 273 289 306 334 10 11 326 264 242 237 235 252 294 312 308 284 271 292 277 229 229 125 138 147 116 69 47 35 38 36 35 38 34 29 27 24 30 48 51 47 51 48 44 71 87 72 55 30 5 353 6 48 39 7 298 268 259 251 240 228 215 206 204 203 203 205 208 212 218 222 223 226 229 230 234 236 234 233 232 229 226 225 224
252 213 201 239 265 296 328 350 355 310 279 271 264 257 264 277 275 275 264 265 303 288 250 93 95 161 146 113 79 48 35 36 33 32 35 31 29 36 33 32 49 61 58 56 52 45 46 56 61 55 39 13 355 350 344 326 322 317 308 307 297 271 254 237 217 209 208 205 206 212 217 222 223 221 222 226 228 233 239 241 238 234 232 231 229 227
266 221 167 226 253 269 293 296 285 283 284 283 280 279 286 284 269 258 240 229 257 262 221 57 42 154 121 94 66 46 34 36 37 30 25 26 32 38 34 29 38 48 49 47 49 48 44 43 47 50 46 32 21 23 26 263 266 276 285 297 296 275 265 257 238 221 218 218 218 220 223 222 218 216 215 221 228 232 237 244 246 240 233 231 231 230
275 229 148 252 259 242 256 273 258 255 257 262 280 288 292 302 303 282 246 197 162 154 141 132 133 115 84 59 56 54 39 40 42 27 12 16 33 42 40 34 31 36 40 39 42 46 44 42 41 41 44 41 30 27 29 20 336 284 278 278 270 262 261 259 249 234 227 230 230 229 229 225 219 218 217 223 232 235 234 237 245 250 245 235 233 233
263 213 153 253 257 218 211 254 246 246 252 246 244 251 248 240 112 125 122 125 147 156 157 171 165 136 87 53 60 61 50 47 47 30 6 0 25 49 55 50 36 32 38 39 40 43 42 40 39 36 37 38 34 32 24 14 11 1 307 279 266 261 255 252 251 244 236 238 240 237 232 226 222 221 220 223 230 231 229 231 239 251 256 249 240 235
232 209 166 232 254 198 161 245 251 242 251 247 237 229 223 220 215 140 114 117 284 203 180 205 197 144 114 88 73 55 44 42 42 31 356 340 24 58 66 62 48 37 41 41 40 41 39 35 34 34 34 32 30 33 30 18 17 18 353 299 275 267 260 254 253 252 248 246 245 243 236 227 225 223 220 220 223 223 227 230 230 234 240 244 245 242
235 240 193 226 264 187 132 267 267 243 247 246 234 228 226 236 258 195 133 166 289 215 217 242 118 110 114 113 103 77 57 43 42 33 342 332 29 64 68 67 61 52 48 46 42 41 40 37 34 32 33 32 29 31 36 38 34 29 21 360 323 292 276 267 262 259 259 256 251 247 240 231 227 224 221 221 223 224 226 226 223 225 228 229 237 245
222 248 244 226 273 262 120 266 262 249 249 230 86 44 234 224 240 230 171 145 172 223 322 45 94 119 125 124 127 115 107 100 76 66 358 338 15 59 65 66 66 61 54 49 45 43 42 42 39 36 33 29 27 30 37 46 48 41 38 37 33 27 359 315 298 288 277 271 266 257 248 240 235 231 231 232 231 228 224 222 225 230 229 222 225 239
205 229 226 215 264 276 98 245 247 249 242 114 117 137 169 190 233 244 225 174 204 261 346 96 118 142 133 129 136 134 139 152 124 93 52 360 10 47 61 65 66 64 60 54 49 46 44 43 42 40 35 27 24 30 35 41 48 53 55 57 55 50 43 35 24 5 334 303 286 271 258 250 245 243 243 242 239 232 225 224 227 227 221 213 213 222
228 227 211 217 256 267 246 239 252 324 10 172 162 149 161 190 205 220 217 183 183 237 214 136 144 156 145 142 144 142 148 149 115 89 74 33 18 34 51 62 65 65 63 60 56 50 46 46 47 45 40 30 26 33 39 44 51 57 59 57 55 53 49 48 45 37 26 9 338 299 270 254 247 246 244 238 236 235 231 230 228 221 214 213 215 218
248 248 223 213 227 256 264 251 267 312 278 205 164 153 182 204 195 232 251 164 156 193 213 167 155 153 152 154 151 150 155 152 125 90 82 72 44 37 46 54 59 64 65 63 62 58 51 50 52 52 49 42 36 36 43 52 57 60 61 59 58 56 52 49 48 46 41 36 29 15 325 268 248 243 241 236 235 236 231 225 220 212 205 207 210 210
238 247 242 228 209 232 272 268 261 274 266 134 110 141 176 179 130 212 268 175 158 177 192 186 169 154 153 165 162 156 158 159 135 100 98 96 78 74 71 61 60 66 67 65 64 63 57 52 53 54 53 51 45 41 44 53 60 61 61 60 60 60 56 51 48 47 47 49 50 51 48 44 50 61 255 255 248 237 223 209 197 188 189 196 199 202
217 226 238 242 222 219 255 267 263 272 332 84 102 139 159 163 148 178 243 199 154 164 180 186 175 160 167 182 174 163 169 186 163 133 132 130 107 97 88 75 70 71 72 69 66 66 61 55 54 55 54 53 51 49 47 53 60 63 62 61 62 62 59 55 52 52 53 56 58 59 59 57 58 62 61 53 47 277 230 198 171 155 159 173 176 192
205 208 215 228 230 220 240 262 268 274 81 101 127 148 153 167 190 217 245 198 136 153 172 184 178 167 171 180 180 183 197 197 147 136 133 132 124 108 91 78 69 67 70 71 69 69 67 59 56 54 50 48 52 56 54 54 59 61 60 60 60 60 59 57 57 58 58 60 62 63 63 62 60 60 56 53 54 51 23 353 141 132 138 158 157 160
197 203 213 230 235 216 229 260 266 241 100 120 151 156 150 173 221 240 251 100 132 148 161 184 185 170 169 177 185 197 129 79 102 118 124 127 120 100 84 78 74 70 69 68 66 69 69 62 56 54 50 45 48 56 58 58 59 59 57 57 57 56 55 55 57 59 60 60 61 62 62 62 61 61 59 53 50 50 44 40 76 105 135 175 169 165
197 201 209 230 238 227 235 258 257 219 113 142 151 140 157 202 239 281 74 104 138 142 151 185 185 166 173 181 176 148 113 108 114 120 122 124 115 95 79 76 78 77 74 70 68 69 71 66 61 57 54 47 45 51 55 56 59 59 58 57 56 53 52 51 52 54 56 57 57 57 58 59 61 63 62 58 52 46 40 36 44 64 97 172 164 149
198 206 210 212 223 230 231 241 254 278 136 158 155 148 192 227 212 102 129 128 129 137 148 169 166 166 179 173 152 140 134 128 125 122 122 123 113 101 91 85 82 78 74 70 67 69 72 72 67 61 57 52 46 46 49 53 55 56 54 54 53 53 52 51 50 51 54 54 53 53 53 54 56 58 57 55 55 53 46 42 43 53 72 107 118 112
193 215 229 201 192 233 241 229 259 49 133 163 169 152 169 137 94 126 164 137 123 142 153 150 149 165 179 167 156 154 145 135 129 124 124 125 116 108 105 102 97 90 81 73 67 67 70 72 71 68 63 58 51 46 46 50 54 54 51 48 48 50 53 53 52 55 57 55 54 54 55 53 51 52 54 51 52 56 56 56 56 55 60 70 79 84
195 236 290 240 186 236 299 48 73 85 135 160 160 52 100 120 110 124 144 127 131 147 149 147 146 151 166 163 156 154 150 145 140 133 130 129 119 112 110 106 103 100 94 86 76 73 73 73 73 72 67 62 57 51 47 48 51 50 46 42 43 50 55 58 59 58 58 58 57 57 58 57 53 52 54 53 51 50 49 49 51 51 53 57 61 66
104 137 286 262 173 169 44 86 113 133 151 160 146 84 112 131 128 131 134 130 135 137 134 142 142 146 158 160 153 152 155 152 145 138 134 130 121 116 114 108 102 98 95 90 83 80 82 79 74 71 68 63 59 56 52 49 47 43 35 35 44 52 57 60 61 60 58 59 60 58 58 59 57 55 57 57 55 55 55 54 52 48 50 56 61 65
156 200 226 211 169 177 186 156 143 150 162 165 156 136 136 138 132 133 131 125 128 132 129 129 134 143 153 155 151 150 151 150 144 137 133 132 128 123 116 107 99 93 90 86 81 80 82 79 74 71 68 62 56 55 54 51 47 41 33 33 43 50 55 57 58 59 60 60 61 60 58 58 57 57 58 59 59 59 59 61 63 61 56 55 58 64
168 198 215 201 184 178 142 131 133 139 153 162 161 153 151 148 136 124 121 125 128 128 126 127 135 144 149 150 149 148 147 146 142 139 136 135 132 126 119 112 108 103 97 90 83 80 80 77 74 73 69 64 59 56 55 52 48 43 38 36 39 43 50 53 54 57 60 60 60 59 57 56 58 59 61 64 65 64 61 60 61 64 65 64 61 60
139 173 199 204 193 169 118 133 146 149 154 168 173 160 151 150 140 133 134 136 135 133 131 134 140 146 149 151 149 149 150 149 145 145 143 137 133 133 129 122 117 112 106 97 88 82 80 78 78 75 71 67 63 60 59 55 49 44 43 39 37 40 46 51 54 56 58 58 57 57 57 55 56 60 65 70 72 73 72 71 69 67 67 68 69 69
169 186 191 205 211 215 190 168 169 173 173 176 175 162 152 150 146 145 146 145 144 144 142 141 142 144 149 153 155 155 154 151 151 151 147 143 142 140 135 129 126 122 118 112 103 92 82 77 77 76 72 68 66 63 63 60 52 47 45 41 38 40 42 43 47 51 51 50 47 43 45 52 54 54 60 71 78 80 79 78 76 75 73 71 69 69
204 200 191 212 233 250 184 168 177 206 199 168 166 163 157 155 154 153 153 150 150 151 151 150 148 148 152 157 162 163 157 153 157 158 153 151 150 144 140 140 136 131 131 132 123 105 91 79 74 73 69 66 65 63 62 63 60 54 50 46 42 42 42 39 39 41 41 42 39 30 27 37 45 48 53 61 72 84 87 82 76 72 71 72 72 71
Height
784 793 797 794 791 788 789 790 792 793 792 792 794 798 798 804 807 797 797 796 794 803 803 800 804 802 802 801 797 797 797 800 801 801 803 802 803 802 803 802 803 805 803 802 806 809 811 813 816 818 820 822 824 826 828 830 832 833 834 836 837 838 840 841 842 843 844 845 846 847 847 848 849 851 852 852 853 854 855 856 857 858 859 860 860 861
789 798 794 787 787 787 788 790 792 793 793 793 792 795 796 798 800 796 797 797 796 804 803 799 804 803 800 799 797 795 798 800 799 801 802 801 802 801 801 802 802 803 800 801 805 807 810 812 814 817 819 821 823 825 827 829 831 832 834 835 837 838 839 840 842 843 844 845 846 846 847 847 849 850 851 852 853 853 854 856 857 858 859 859 860 861
798 797 787 783 786 788 790 789 791 793 792 793 791 793 795 792 796 799 799 796 797 804 803 799 803 800 796 797 797 795 796 796 794 796 798 799 801 801 801 802 802 802 802 801 803 805 808 810 813 816 818 820 822 824 826 828 829 831 833 834 836 837 839 840 841 842 844 844 845 846 847 848 849 850 851 852 853 854 854 856 857 858 859 859 860 861
800 791 781 781 785 790 793 791 792 794 792 791 790 792 792 789 796 805 804 801 799 800 800 801 803 797 793 795 796 794 793 792 792 793 795 795 798 799 799 799 801 803 803 803 802 803 805 808 811 814 816 818 820 822 824 826 828 830 832 833 835 837 838 840 841 842 844 845 846 847 848 848 849 850 851 852 853 854 855 856 857 858 858 859 860 861
793 785 780 782 787 790 794 793 794 796 794 788 787 789 790 789 793 798 801 800 799 800 799 799 802 795 791 798 798 793 792 793 793 794 796 796 795 796 796 797 799 800 801 802 801 801 803 806 809 812 815 817 818 820 822 824 826 828 830 832 834 836 837 839 841 842 843 845 846 847 848 849 850 851 851 852 853 854 855 855 856 858 858 859 860 861
788 784 783 787 790 790 793 794 793 794 794 789 784 783 785 789 791 793 798 797 800 807 800 796 808 805 791 793 794 791 795 797 795 795 797 797 795 796 797 796 797 797 797 799 799 799 801 804 807 810 813 815 816 818 820 822 824 826 829 831 833 835 837 838 840 842 843 844 845 846 847 848 849 850 851 851 852 853 854 855 856 857 858 859 860 861
786 785 785 789 791 791 795 794 788 789 796 794 781 776 781 787 791 794 797 798 800 804 797 793 811 815 796 790 788 789 798 801 797 798 797 796 796 795 795 795 795 795 795 796 797 797 799 802 805 808 811 813 814 816 818 820 822 825 827 829 832 834 836 837 839 841 842 844 845 846 846 847 848 849 850 851 852 853 854 854 855 857 858 859 859 860
786 788 790 789 790 792 794 792 785 786 795 793 778 776 784 787 791 793 794 797 796 796 794 790 802 811 800 791 786 786 797 802 799 800 797 795 795 794 792 792 792 793 793 794 796 796 798 800 803 806 809 810 812 814 816 819 821 824 826 828 830 833 834 836 838 840 841 843 844 845 846 847 848 848 849 851 852 853 854 854 855 856 857 858 859 860
783 789 791 790 791 791 788 785 781 784 791 787 777 777 782 785 790 791 792 796 795 801 805 793 796 810 805 796 791 788 795 801 801 801 799 795 793 792 791 789 789 790 790 791 793 795 796 799 801 804 807 808 810 812 815 817 820 822 825 827 829 831 833 835 837 839 840 842 843 844 845 846 847 848 849 851 851 853 854 854 855 856 857 858 858 859
783 785 784 786 790 788 784 781 780 784 787 781 777 779 781 785 789 791 796 799 802 813 813 796 795 810 814 808 804 801 800 800 799 798 797 795 792 790 789 788 787 787 789 789 790 792 794 797 800 802 804 806 808 810 813 815 818 821 824 825 828 830 832 834 836 838 839 841 843 843 845 846 847 848 849 850 851 852 853 854 855 856 856 857 858 858
782 780 781 783 786 784 783 782 782 781 780 779 782 786 789 791 792 794 796 799 812 821 811 796 793 804 818 816 805 805 803 795 794 794 792 792 791 788 786 786 786 785 787 788 788 789 792 795 798 800 802 804 807 809 812 814 816 819 822 824 826 828 830 833 834 837 839 840 842 843 844 845 846 848 849 850 851 852 853 854 854 855 856 856 857 858
783 784 783 781 780 780 781 784 783 778 777 782 785 790 800 803 801 803 802 807 823 828 813 797 789 798 820 823 807 801 796 789 792 793 790 791 789 785 783 783 783 782 784 786 788 789 790 793 796 798 800 803 806 808 810 813 815 818 820 822 825 827 829 831 833 835 837 839 840 841 843 844 845 847 848 849 850 851 852 853 853 854 855 856 856 857
785 784 781 780 779 778 782 786 788 785 783 785 788 796 810 816 820 822 819 819 821 819 810 798 795 806 818 815 804 798 792 787 789 788 785 786 784 783 784 782 781 781 781 783 787 788 788 791 793 796 799 801 805 807 809 811 813 815 819 820 823 825 827 829 831 833 835 837 839 840 841 843 844 846 847 848 849 850 851 852 852 853 854 855 855 856
790 786 781 783 783 777 779 786 792 793 790 789 791 799 808 814 829 834 822 819 818 811 801 794 802 813 810 803 797 792 790 786 784 782 782 781 778 779 782 780 778 779 780 781 783 785 787 789 791 794 797 800 803 805 807 810 812 814 816 819 821 823 825 827 829 831 833 835 837 839 840 842 843 844 845 846 847 848 849 850 851 852 853 853 854 855
800 801 790 788 786 779 780 782 783 784 786 785 780 787 796 797 811 819 810 810 813 807 801 801 809 812 809 805 794 785 785 783 782 781 780 777 770 772 778 778 777 779 780 779 781 783 784 786 790 792 795 798 800 803 805 807 810 812 814 817 819 821 823 825 827 829 831 833 835 837 839 840 841 843 844 845 846 847 848 849 849 850 851 852 853 853
801 803 789 784 783 780 782 779 775 780 785 780 773 784 794 785 786 799 800 797 799 806 808 806 805 800 799 800 790 785 785 783 784 782 779 777 770 769 776 779 779 780 780 779 779 781 782 784 788 790 793 796 798 800 803 805 808 810 812 814 817 819 821 823 825 827 829 831 833 835 837 838 840 841 842 843 844 845 846 847 848 849 850 850 851 852
800 799 787 783 783 780 782 779 775 782 786 781 782 789 785 774 778 795 805 799 802 818 815 801 800 801 803 802 792 788 789 786 788 787 783 782 777 773 776 781 783 783 782 781 779 780 781 783 786 788 790 793 795 798 800 803 805 807 810 812 814 817 820 821 823 825 827 829 831 833 835 836 838 839 840 841 842 843 844 845 846 847 848 849 850 851
797 797 788 786 789 781 776 777 775 775 778 783 787 782 775 779 783 792 809 813 816 825 812 797 805 811 813 812 799 791 795 795 792 791 789 787 785 782 779 781 784 785 786 785 781 779 780 782 784 787 788 791 793 795 798 800 803 805 808 810 812 815 817 819 821 823 825 827 829 831 833 834 836 837 838 839 840 841 842 843 844 845 846 847 848 849
794 800 792 784 789 782 773 780 783 774 772 778 779 772 779 798 799 798 811 818 821 824 810 798 801 803 805 810 806 801 802 801 797 795 794 792 792 791 787 785 784 785 788 788 785 783 782 782 785 786 788 790 792 794 796 798 801 803 805 807 810 812 814 816 819 821 823 825 827 829 830 832 834 835 836 837 838 839 840 841 842 843 844 845 846 847
791 803 799 783 783 783 776 782 789 784 776 775 775 773 778 790 795 796 800 804 814 820 813 806 804 805 809 809 808 807 803 802 802 798 796 797 796 795 793 791 788 786 788 789 789 787 785 785 787 788 790 791 792 794 796 798 800 801 804 806 808 810 812 815 817 819 821 822 824 826 828 830 831 833 834 835 836 837 838 839 840 841 842 843 844 844
791 801 803 787 781 785 787 788 790 790 787 784 785 786 785 785 788 792 792 792 805 815 818 819 811 806 809 805 804 805 801 801 802 798 798 800 798 795 794 793 791 788 788 789 791 790 789 789 789 789 791 791 793 795 796 798 799 801 803 805 807 809 811 813 814 816 818 820 822 824 825 827 829 831 832 833 835 835 836 837 838 839 840 840 842 842
794 799 802 795 787 787 792 791 788 790 790 788 789 789 787 788 793 805 807 794 793 803 811 818 815 807 804 800 799 801 799 800 800 797 800 803 800 797 795 793 792 791 789 789 791 792 792 792 791 791 791 792 793 794 795 797 799 800 802 803 805 807 809 810 812 814 816 818 820 821 823 825 827 828 830 831 832 833 834 835 836 837 838 838 839 840
793 797 801 800 792 788 791 790 787 789 787 785 787 785 785 787 791 807 814 801 794 797 797 804 812 811 804 799 798 799 798 799 800 799 801 802 800 798 796 794 792 792 790 789 791 792 792 793 794 793 793 793 794 794 795 797 798 800 801 802 804 805 806 809 810 812 814 816 818 819 821 823 824 826 827 828 829 830 831 832 833 834 835 836 837 838
794 799 804 803 796 791 789 786 785 787 788 788 788 785 787 788 787 792 796 794 796 797 797 808 816 813 807 804 800 798 799 801 801 800 801 801 800 799 797 795 794 793 791 789 790 792 793 794 795 795 795 794 795 796 796 796 798 799 801 802 803 804 805 807 809 811 812 814 815 817 819 820 822 823 824 825 826 827 828 829 830 831 832 833 834 835
798 802 806 810 810 807 803 800 797 794 792 792 790 790 790 789 789 790 788 794 801 797 796 808 816 815 812 807 802 799 800 803 803 801 800 800 800 799 798 796 796 795 793 791 792 793 793 795 796 797 797 796 796 796 797 798 798 799 801 802 802 803 805 806 808 809 810 812 813 815 816 818 819 820 821 822 823 824 825 826 827 828 829 831 831 832
797 802 804 812 817 817 817 816 808 800 795 793 793 795 794 791 792 795 797 805 809 803 800 803 812 820 816 808 807 805 804 806 805 802 801 800 801 800 798 797 797 796 796 794 793 794 794 795 796 797 798 798 797 797 798 799 799 799 801 802 802 803 804 805 806 807 808 810 811 812 814 815 816 817 818 820 821 822 823 824 825 826 827 828 829 830
797 801 802 808 810 808 808 807 800 795 797 799 798 797 796 795 795 799 807 812 810 811 810 803 806 819 819 813 814 812 809 809 807 804 804 804 804 803 801 799 798 798 798 797 795 795 794 794 796 798 799 799 799 798 798 798 798 799 801 802 802 803 803 803 804 805 806 807 808 810 811 812 814 815 816 817 819 820 821 822 823 824 825 826 827 828
800 803 801 804 805 800 799 799 795 796 800 801 801 799 797 797 798 804 812 815 819 828 825 809 805 813 816 816 817 816 813 812 810 809 809 808 807 806 804 802 801 800 800 798 798 798 797 797 798 799 800 800 800 799 798 798 798 799 800 801 802 803 804 804 803 803 804 804 805 807 807 809 811 812 814 816 817 819 820 821 822 823 823 825 825 826
799 801 799 800 802 798 796 797 796 798 800 800 801 801 799 798 799 803 807 807 815 829 827 817 814 814 813 815 819 820 818 816 815 814 811 810 809 808 807 806 805 805 804 803 802 802 802 802 801 802 802 802 801 800 799 799 799 799 799 800 801 803 804 805 804 802 802 803 803 804 805 807 809 810 812 814 815 817 818 820 821 822 822 823 824 825
797 801 799 800 803 799 798 798 797 798 802 803 803 802 800 800 799 800 803 802 808 817 818 816 818 818 816 817 819 821 820 817 816 816 814 814 812 811 810 810 810 810 808 807 806 805 805 805 805 805 804 803 802 800 799 799 799 799 799 800 801 802 803 804 804 801 800 801 802 803 804 806 807 808 810 811 812 814 816 819 822 822 821 821 822 823
798 803 802 801 804 802 799 799 798 799 802 804 805 803 800 801 802 802 804 806 809 814 814 813 817 819 817 816 817 819 819 817 817 818 820 820 816 812 812 812 814 815 813 811 810 808 808 807 807 806 805 804 803 801 799 798 797 798 798 799 800 801 801 802 801 800 799 799 800 802 803 804 805 807 808 809 810 812 814 817 820 821 821 821 821 821
797 802 801 803 808 805 799 801 801 798 800 803 804 803 800 802 804 804 805 806 807 811 815 815 816 817 815 814 817 819 819 820 820 821 825 825 819 815 814 814 817 818 815 814 812 810 809 808 807 807 806 805 804 802 801 800 799 799 799 800 800 800 800 800 799 799 799 799 800 801 801 802 803 805 806 807 808 810 812 814 816 818 818 819 820 820
795 799 799 803 810 806 800 802 801 800 809 813 805 800 799 801 803 803 805 805 804 808 814 812 810 811 813 814 819 822 823 824 824 825 828 828 822 817 815 814 816 817 816 815 814 812 811 810 809 808 807 806 806 804 803 802 801 800 799 800 800 799 799 799 798 798 798 798 799 800 800 801 802 803 804 805 806 808 809 810 812 813 814 816 817 818
796 798 798 802 809 809 803 802 804 811 821 817 803 796 798 802 804 805 807 805 803 805 806 804 805 809 811 814 820 823 825 826 825 824 828 829 824 819 816 815 816 816 815 816 815 814 812 811 810 809 808 807 807 806 805 804 803 802 801 801 801 800 799 799 798 798 798 798 798 799 799 799 800 801 802 803 804 806 806 808 809 810 811 813 815 816
797 798 799 801 806 806 803 807 820 826 817 805 798 796 797 799 800 803 805 804 804 804 803 807 812 812 810 815 820 822 824 825 821 820 824 828 826 821 818 816 815 815 815 816 815 815 814 812 811 810 810 809 808 806 805 805 804 803 803 802 801 801 800 799 798 797 797 797 797 797 798 798 799 800 801 802 803 804 804 805 806 807 809 810 812 813
794 796 798 801 804 807 809 816 825 819 801 793 797 798 798 800 801 805 808 806 804 805 805 810 815 813 811 815 818 820 822 821 818 819 822 825 826 824 820 817 815 814 814 815 815 815 815 814 813 813 812 811 809 808 807 806 805 804 803 802 802 801 800 799 798 797 797 796 796 796 796 797 798 799 800 801 802 803 804 804 805 806 807 808 809 810
791 794 797 803 807 809 811 812 809 805 800 796 798 798 797 798 799 803 808 806 802 803 804 807 810 811 811 814 816 817 817 817 820 822 821 823 825 824 821 817 814 814 814 814 815 816 816 816 815 815 814 813 811 810 808 808 806 805 804 803 803 802 802 801 800 800 799 799 798 796 796 796 796 797 799 800 801 802 803 803 804 805 805 805 806 807
790 792 795 803 807 805 809 811 809 813 814 805 797 794 792 792 793 795 803 806 801 799 802 805 808 811 812 813 814 814 814 817 823 824 823 822 823 822 822 819 816 815 815 816 816 817 817 817 817 816 816 814 813 812 811 810 809 807 806 805 804 804 804 804 803 803 802 801 800 798 797 797 797 797 799 800 800 801 801 801 801 802 802 803 804 806
791 791 791 799 804 804 810 815 814 815 812 801 795 793 791 791 791 794 807 811 800 796 801 803 806 812 814 813 812 812 817 822 824 822 822 823 822 822 821 819 817 817 817 818 818 818 818 819 818 817 817 816 815 814 813 812 811 809 808 808 807 807 806 806 806 805 804 803 802 800 800 800 800 799 800 800 800 800 801 800 799 798 800 802 804 805
794 793 793 799 802 801 807 811 805 803 801 796 793 792 791 789 790 804 824 821 800 795 801 802 804 810 811 812 812 813 816 819 817 818 820 821 822 821 820 819 819 818 818 819 820 820 820 820 819 818 817 816 816 815 815 814 813 812 811 811 810 809 809 809 809 807 806 805 805 803 803 802 802 801 801 800 800 800 803 803 800 798 799 802 804 805
795 793 793 797 797 798 806 809 802 796 795 793 791 790 788 791 800 814 824 814 799 797 801 800 802 805 806 810 812 812 813 813 813 816 818 819 820 820 819 820 821 820 821 822 821 821 821 820 820 819 819 818 817 817 817 816 815 815 814 814 813 812 812 812 811 810 809 808 806 806 805 805 804 803 802 802 803 804 805 804 802 800 801 803 803 803
797 796 796 797 797 797 801 805 804 800 795 791 791 789 790 800 812 813 806 798 797 800 800 800 802 803 805 808 810 811 813 814 815 817 818 819 820 820 821 822 822 823 823 824 823 822 822 822 822 821 821 820 819 818 818 818 817 817 816 816 815 815 815 814 814 813 811 810 809 808 808 807 807 806 806 806 807 807 807 806 804 803 803 804 804 802
792 797 798 795 794 798 803 808 811 809 797 789 792 795 796 801 807 803 798 797 798 798 800 802 802 802 805 808 809 811 813 815 816 817 817 818 818 820 822 824 824 825 825 825 825 824 823 823 823 823 823 822 821 821 820 819 819 818 818 818 817 818 817 816 816 815 814 813 812 811 811 810 809 809 809 809 809 809 809 808 807 806 806 806 805 802
786 791 794 790 790 799 806 807 805 800 791 787 791 795 794 794 794 795 797 799 798 798 800 802 803 804 804 806 809 812 813 816 818 818 818 818 818 820 823 824 825 826 827 826 826 825 825 825 825 825 825 824 824 823 822 822 821 821 820 820 820 820 819 818 818 817 817 816 816 815 814 813 812 811 811 812 812 811 811 811 810 809 808 806 805 802
786 786 788 787 786 791 795 794 791 789 786 787 790 791 791 790 790 792 794 795 797 799 799 800 804 806 804 805 809 811 813 815 817 818 819 819 819 821 823 824 826 826 827 827 828 827 827 827 826 826 826 825 826 825 824 823 823 823 823 823 822 822 821 820 820 819 819 818 818 817 817 816 815 814 814 814 813 812 812 811 810 810 809 808 807 805
783 783 784 784 784 787 789 788 788 788 788 788 789 790 790 790 790 790 792 794 797 797 797 800 803 804 804 805 808 812 814 814 814 817 819 819 820 822 824 825 826 826 827 828 828 828 828 828 828 827 827 827 827 827 826 825 825 825 825 825 824 823 823 822 822 821 821 820 820 819 819 818 818 817 816 816 815 814 813 813 812 812 812 812 811 811
783 782 782 784 787 792 793 789 787 789 789 788 790 791 791 791 791 791 792 794 796 796 798 800 801 803 804 804 806 811 813 813 814 817 818 819 821 823 824 826 827 827 828 829 829 829 829 829 829 829 829 829 829 828 827 827 827 827 827 826 826 825 824 824 823 822 822 822 821 821 821 820 820 820 819 818 817 817 816 815 815 815 815 815 815 815
782 783 783 784 787 791 791 788 786 788 788 787 788 791 791 792 793 792 792 794 796 797 798 800 801 803 804 805 807 810 812 813 815 818 819 821 822 823 825 827 828 828 830 830 830 831 831 830 831 831 831 831 830 830 829 829 829 829 829 828 827 827 826 825 825 824 824 824 823 823 823 822 822 822 821 821 820 819 819 819 819 818 818 818 818 817
779 783 783 782 785 789 790 789 789 791 792 790 788 788 789 791 793 794 795 795 797 799 800 801 802 803 804 806 808 810 812 814 816 817 820 822 823 825 827 828 829 829 830 831 831 832 832 832 832 832 832 832 832 831 831 831 831 831 830 830 829 828 828 827 826 826 826 825 825 825 825 824 824 824 824 824 823 822 822 822 822 822 821 820 820 819
779 781 779 781 787 790 787 786 788 790 791 791 789 788 789 790 792 795 796 797 798 800 801 803 804 804 805 807 808 810 813 815 816 818 821 822 824 826 828 828 830 830 830 831 832 832 832 833 833 833 833 833 832 832 833 833 833 833 832 832 831 830 830 829 828 827 827 826 826 826 826 825 826 826 825 825 825 825 825 824 824 823 823 822 822 821
775 775 776 780 784 782 777 777 780 782 783 784 785 787 789 790 792 795 797 798 799 800 801 803 805 806 807 808 809 811 813 815 817 819 820 822 825 827 828 829 830 830 831 832 832 832 833 833 833 833 833 833 833 833 834 834 834 834 833 833 832 832 831 830 830 829 828 828 828 828 827 827 827 827 827 827 827 827 827 827 826 825 825 824 824 823